Probability
0 0 0 0 0 0 0 0 0 0 0 0 0 0 0 0 0 0 0 0 0 0 1 0 0 1 1 1 0 0 0 0 0 0 0 1 2 2 1 0 0 0 0
0 0 0 0 0 0 0 0 0 0 0 0 0 0 0 0 0 0 0 0 0 0 1 0 0 1 1 1 1 0 0 0 0 0 0 0 1 2 1 0 0 0 0
0 0 0 0 0 0 0 0 0 0 0 0 0 0 0 0 0 0 0 0 0 0 0 0 0 1 2 2 1 0 0 0 0 0 0 0 0 1 1 0 0 0 0
0 0 0 0 0 0 0 0 0 0 0 0 0 0 0 0 0 0 0 0 0 0 0 0 0 1 1 1 1 0 0 0 0 0 0 0 0 0 0 0 0 0 0
0 0 0 0 0 0 0 0 0 0 0 0 0 0 0 0 0 0 0 0 0 0 0 0 0 0 0 0 1 0 0 0 0 0 0 0 0 0 0 0 0 0 1
0 0 0 0 0 0 0 0 0 0 0 0 0 0 0 0 0 0 0 0 0 0 0 0 0 0 0 0 0 0 0 0 0 0 0 0 0 0 0 0 0 0 1
0 0 0 0 0 0 0 0 0 0 0 0 0 0 0 0 0 0 0 0 0 0 0 0 0 0 0 0 0 0 0 0 0 0 0 0 0 0 0 0 0 0 1
0 0 0 0 0 0 0 0 0 0 0 0 0 0 0 0 0 0 0 0 0 0 0 0 0 0 0 0 0 0 0 0 0 0 0 0 0 0 0 0 0 0 0
0 0 0 0 0 0 0 0 0 0 0 0 0 0 0 0 0 0 0 0 0 0 0 0 0 0 0 0 0 0 0 0 0 0 0 0 0 0 0 0 0 0 0
0 0 0 0 0 0 0 0 0 0 0 0 0 0 0 0 0 0 0 0 0 0 0 0 0 0 0 0 0 0 0 0 0 0 0 0 0 0 0 0 0 0 0
0 0 0 0 0 0 0 0 0 0 0 0 0 0 0 0 0 0 0 0 0 0 0 0 0 0 0 0 0 0 0 0 0 0 0 0 0 0 0 0 0 0 0
0 0 0 0 0 0 0 0 0 0 0 0 0 0 0 0 0 0 0 0 0 0 0 0 0 0 0 0 0 0 0 0 0 0 0 0 0 0 0 0 0 0 0
0 0 0 0 0 0 0 0 0 0 0 0 0 0 0 0 0 0 0 0 0 0 0 0 0 0 0 0 0 0 0 0 0 0 0 0 0 0 0 0 0 0 0
0 0 0 0 0 0 0 0 0 0 0 0 0 0 0 0 0 0 0 0 0 0 0 0 0 0 0 0 0 0 0 0 0 0 0 0 0 0 0 0 0 0 0
0 0 0 0 0 0 0 0 0 0 0 0 0 0 0 0 0 0 0 0 0 0 0 0 0 0 0 0 0 0 0 0 0 0 0 0 0 0 0 0 0 0 0
0 0 0 0 0 0 0 0 0 0 0 0 0 0 0 0 0 0 0 0 0 0 0 0 0 0 0 0 0 0 0 0 0 0 0 0 0 0 0 0 0 0 1
0 0 0 0 0 0 0 0 0 0 0 0 0 0 0 0 0 0 0 0 0 0 0 0 0 0 0 0 0 0 0 0 0 0 0 0 0 0 0 0 0 0 1
0 0 0 0 0 0 0 0 0 0 0 0 0 0 0 0 0 0 0 0 0 0 0 0 0 0 0 0 0 0 0 0 0 0 0 0 0 0 0 0 0 0 1
0 0 0 0 0 0 0 0 0 0 0 0 0 0 0 0 0 0 0 0 0 0 0 0 0 0 0 0 0 0 0 0 0 0 0 0 0 0 0 0 0 0 0
0 0 0 0 0 0 0 0 0 0 0 0 0 0 0 0 0 0 0 0 0 0 0 0 0 0 0 0 0 0 0 0 0 0 0 0 0 0 0 0 0 0 0
0 0 0 0 0 0 0 0 0 0 0 0 0 0 0 0 0 0 0 0 0 0 0 0 0 0 0 0 0 0 0 0 0 0 0 0 0 0 0 0 0 0 0
0 0 0 0 0 0 0 0 0 0 0 0 0 0 0 0 0 0 0 0 0 0 0 0 0 0 0 0 0 0 0 0 0 0 0 0 0 0 0 0 0 0 0
0 0 0 0 0 0 0 0 0 0 0 0 0 0 0 0 0 0 0 0 0 0 0 0 0 0 0 0 0 0 0 0 0 0 0 0 0 0 0 0 0 0 0
0 0 0 0 0 0 0 0 0 0 0 0 0 0 0 0 0 0 0 0 0 0 0 0 0 0 0 0 0 0 0 0 0 0 0 0 0 0 0 0 0 0 0
0 0 0 0 0 0 0 0 0 0 0 0 0 0 0 0 0 0 0 0 0 0 0 0 0 0 0 0 0 0 0 0 0 0 0 0 0 0 0 0 0 0 0
0 0 0 0 0 0 0 0 0 0 0 0 0 0 0 0 0 0 0 0 0 0 0 0 0 0 0 0 0 0 0 0 0 0 0 0 0 0 0 0 0 0 0
Wind_Speed
3 4 4 4 4 4 5 5 5 5 5 5 5 5 5 4 3 3 2 2 3 3 3 3 4 3 3 3 3 3 3 3 3 2 2 3 4 5 6 5 6 8 8
2 3 4 4 4 4 5 5 6 5 5 5 5 5 5 5 4 3 4 3 2 2 3 3 3 3 3 3 2 3 3 4 4 4 2 2 4 6 7 7 6 7 6
2 3 4 4 4 5 5 5 5 5 6 6 5 5 5 5 5 4 4 3 3 2 2 2 2 2 3 2 3 3 3 3 3 4 3 3 3 4 6 5 6 5 6
1 2 3 4 4 5 5 5 5 5 6 6 5 5 4 4 5 5 5 4 3 2 1 2 2 2 2 2 2 3 3 3 4 4 4 4 3 4 5 6 5 4 5
1 2 3 3 4 4 5 5 5 5 6 5 5 5 5 4 5 6 5 5 3 2 2 1 1 2 3 2 2 2 3 3 3 4 4 4 4 5 5 5 6 5 4
1 2 2 2 3 4 4 5 5 5 5 5 6 6 5 5 9 10 7 4 3 2 2 2 1 1 2 3 3 3 4 5 5 4 4 5 6 6 5 6 6 6 4
1 2 1 2 3 3 5 5 5 4 4 5 5 5 5 6 10 11 11 5 3 3 2 2 1 0 1 1 2 3 3 5 6 5 5 6 6 7 8 8 7 6 4
1 1 1 1 2 3 3 4 5 4 3 4 4 4 4 6 10 11 11 5 3 4 3 3 2 1 1 0 1 2 2 2 4 5 5 5 5 5 6 7 7 6 4
1 1 1 1 1 2 3 4 4 4 4 3 4 4 4 5 8 10 9 4 3 3 4 5 4 3 3 2 1 2 2 1 2 4 5 6 7 8 7 6 7 7 4
1 1 1 0 1 2 2 3 3 3 4 4 3 3 3 3 6 9 9 3 3 3 3 3 5 5 5 3 0 1 2 2 2 3 4 5 5 7 9 8 8 8 5
2 1 1 1 2 2 2 2 3 3 4 4 3 2 2 2 4 6 7 3 3 3 3 2 3 5 5 4 2 0 1 1 2 3 3 3 3 3 4 4 5 6 6
1 1 2 3 3 2 2 2 3 3 4 4 3 2 1 1 2 3 5 5 4 2 3 2 2 4 4 4 2 1 1 0 1 2 3 3 3 3 3 3 4 3 4
2 3 3 4 4 3 3 3 3 3 2 3 2 2 2 1 1 2 3 4 5 2 2 3 4 4 3 2 1 2 1 1 2 2 2 2 2 3 3 3 3 4 5
4 4 4 4 4 3 3 3 2 2 2 3 2 2 2 1 1 1 2 2 3 2 2 3 4 3 2 1 1 1 0 0 1 2 2 2 2 3 3 3 4 4 4
5 4 4 3 3 3 3 3 3 3 3 3 3 2 2 2 1 1 2 2 3 3 4 3 2 1 1 0 0 0 0 1 1 2 3 3 3 3 3 3 3 3 3
5 5 3 3 2 2 3 3 6 7 8 9 8 6 3 4 3 3 3 4 5 5 3 2 2 2 1 1 1 1 1 1 1 2 2 3 3 3 3 3 3 3 4
5 5 3 3 3 3 3 3 4 5 9 11 11 11 10 9 7 7 6 5 7 5 2 3 3 3 2 2 2 2 2 2 2 2 2 3 3 3 4 4 4 3 3
5 5 4 3 4 4 4 4 4 4 4 4 9 14 14 13 12 10 7 3 4 3 4 4 4 3 2 2 2 2 2 2 2 2 3 3 3 4 4 4 4 5 4
4 3 4 4 4 4 4 4 4 5 4 4 3 5 11 11 11 9 6 4 5 5 4 4 4 4 3 3 3 3 3 3 3 3 3 4 3 4 4 4 5 7 5
5 7 6 5 4 4 4 5 4 4 4 4 4 3 2 3 3 5 6 6 6 6 5 5 4 4 4 3 3 3 3 3 4 4 4 4 4 4 4 5 5 6 5
5 6 8 5 4 5 5 5 5 5 4 4 4 4 2 3 4 5 5 6 6 7 6 5 5 4 4 4 4 4 5 4 4 5 4 4 4 4 4 4 5 5 5
5 5 4 5 5 4 5 5 5 5 6 6 5 5 5 3 3 3 3 4 4 5 5 5 5 5 5 5 5 5 5 5 5 5 5 5 5 5 5 4 5 5 6
5 6 5 5 5 7 6 5 5 6 6 6 6 6 4 4 4 4 4 4 4 4 3 3 4 4 4 5 5 6 6 6 6 6 6 5 5 5 5 5 6 6 6
5 6 5 5 5 5 5 6 6 6 7 7 6 6 6 6 5 5 5 4 4 4 3 3 3 4 5 4 3 4 4 5 5 6 8 7 6 5 5 5 6 7 6
4 5 5 5 5 6 6 6 6 7 7 7 7 7 7 7 6 6 6 6 7 6 6 4 3 4 6 6 4 4 5 8 7 5 5 6 7 7 7 6 6 6 6
4 5 5 4 5 5 6 6 6 7 7 7 7 7 7 7 7 6 6 6 7 7 8 6 6 6 6 5 6 6 7 8 9 9 6 5 6 6 7 6 8 7 7
Wind_Direction
0 345 355 355 345 345 340 338 341 335 337 335 337 340 341 341 332 323 303 277 258 255 249 232 227 223 218 216 203 195 193 182 192 203 186 161 159 160 163 168 158 160 169
11 357 358 345 352 356 346 342 340 342 346 344 348 350 349 352 345 338 325 320 298 277 260 247 236 220 214 215 204 198 197 190 176 180 178 170 173 164 161 162 152 156 158
22 9 358 358 2 351 343 346 347 353 353 350 352 356 357 355 349 346 338 325 314 297 275 252 241 226 214 213 208 199 196 195 175 167 174 172 172 160 151 148 141 139 151
32 20 4 358 0 350 347 350 354 357 353 351 352 357 356 355 349 347 340 327 315 305 287 263 239 221 217 211 208 201 193 185 177 167 170 169 164 155 148 149 147 145 147
36 46 26 360 1 357 347 346 359 357 350 349 354 355 353 355 1 352 337 332 328 328 315 299 249 215 199 199 203 198 195 182 174 176 181 170 166 163 166 160 157 147 136
50 67 40 352 359 355 340 345 353 347 348 356 356 356 359 7 0 357 350 334 324 316 305 294 272 215 201 194 197 198 193 188 185 183 189 185 184 174 160 162 157 155 159
58 82 57 7 360 349 346 347 342 342 359 359 353 358 358 2 2 358 352 338 334 338 322 305 305 314 131 171 211 206 202 204 199 190 192 196 186 180 169 170 172 167 159
52 55 64 34 360 345 340 334 331 339 351 348 343 351 353 5 7 1 353 349 357 5 1 355 356 13 55 165 202 195 186 202 205 199 197 199 195 178 175 173 162 142 113
72 21 37 49 351 328 326 325 327 336 337 335 332 352 356 6 17 9 3 352 4 15 19 24 20 27 14 9 193 194 181 187 184 173 172 178 173 167 161 152 154 154 152
78 16 17 15 290 294 306 312 316 318 317 320 332 348 357 10 25 17 9 355 359 1 13 24 31 28 14 11 270 195 185 181 161 153 151 153 164 170 172 175 172 168 154
51 0 320 285 265 251 261 280 296 304 306 309 317 324 346 18 30 25 15 5 352 354 358 1 15 19 15 12 15 169 228 223 170 155 153 151 150 160 175 175 175 171 165
14 294 283 276 279 285 261 262 272 288 299 299 304 314 319 41 52 21 8 358 349 353 342 345 359 8 7 5 12 341 311 307 160 149 150 157 157 158 160 153 153 156 157
270 257 257 258 248 245 248 260 266 268 276 288 297 304 308 326 74 20 351 339 340 339 331 338 337 335 337 344 327 319 318 193 161 155 160 161 157 153 145 135 118 111 106
280 270 257 251 253 247 226 234 249 266 282 293 296 297 299 307 358 2 335 327 331 333 331 319 317 318 313 312 321 318 47 107 138 145 141 135 131 139 146 145 142 134 120
289 281 277 263 253 256 250 233 235 232 220 239 268 287 303 305 309 2 345 335 342 343 329 305 286 268 275 247 220 69 116 132 129 129 137 141 144 147 149 148 148 147 152
311 311 311 306 291 268 264 264 237 233 235 233 233 237 254 245 232 255 286 303 312 321 326 293 289 276 250 225 196 188 173 163 157 149 151 156 161 164 162 155 153 154 155
314 313 311 308 305 294 282 273 275 259 243 245 243 240 239 248 250 250 261 284 293 299 281 270 265 257 247 226 199 191 191 181 164 158 160 166 170 170 168 167 167 163 159
319 319 326 314 307 297 289 282 274 271 266 254 238 234 236 240 244 246 249 275 280 251 238 249 254 246 232 221 209 200 193 180 173 182 182 180 181 179 176 177 177 174 168
324 321 320 310 302 300 296 292 286 283 279 274 264 234 229 234 242 245 226 227 248 253 245 243 240 237 225 213 205 200 195 193 189 188 191 188 186 182 184 186 182 179 175
325 326 326 316 313 313 313 313 311 307 301 295 288 275 205 184 214 222 210 221 235 245 245 243 238 230 222 211 203 198 200 201 195 193 194 192 189 187 188 188 183 181 185
326 328 331 326 321 323 324 320 316 313 312 310 302 297 272 227 230 235 226 219 225 233 238 238 234 226 221 210 203 204 205 206 201 197 196 193 190 191 191 186 187 186 181
328 330 334 336 332 332 325 322 325 325 323 319 314 310 289 281 275 273 267 257 242 232 229 228 228 224 215 208 204 206 212 211 206 200 197 193 192 191 190 188 188 187 183
332 336 339 339 339 338 336 333 332 331 330 329 328 328 327 306 291 288 285 282 279 272 257 240 235 237 231 219 208 204 210 214 207 199 195 193 192 191 188 190 190 186 188
335 338 340 340 341 339 339 339 338 337 335 335 337 338 338 333 327 321 318 311 300 289 281 269 254 249 247 241 233 224 220 219 209 203 198 194 193 192 189 192 192 189 190
334 337 341 343 343 342 340 340 340 341 339 339 339 338 337 334 332 333 332 330 326 316 305 294 279 265 259 250 241 238 239 234 229 215 199 195 196 195 192 194 194 191 191
338 342 345 345 344 341 339 338 339 339 337 337 337 336 332 331 330 330 332 334 331 327 322 313 307 305 289 267 258 247 239 237 231 224 214 203 199 201 196 195 197 197 195